Weather History for Big Piney, WY

Change the Weather History Date:

Tuesday, December 11, 2012

  Actual Average Record
Temperature  
Mean Temperature 15 °F 13 °F  
Max Temperature 30 °F 27 °F 45 °F (1995)
Min Temperature 0 °F 1 °F -27 °F (2009)
Degree Days  
Heating Degree Days 50 52  
Month to date heating degree days 478 557  
Since 1 July heating degree days 2643 3372  
Cooling Degree Days 0 0  
Month to date cooling degree days 0 0  
Year to date cooling degree days 67 35  
Moisture  
Dew Point 10 °F    
Average Humidity 74    
Maximum Humidity 95    
Minimum Humidity 53    
Precipitation  
Precipitation 0.00 in 0.01 in 0.04 in (1984)
Month to date precipitation 0.04 0.10  
Year to date precipitation 2.69 6.28  
Sea Level Pressure  
Sea Level Pressure 29.99 in    
Wind  
Wind Speed 5 mph (East)    
Max Wind Speed 15 mph    
Max Gust Speed 18 mph    
Visibility 10 miles    
Events      
T = Trace of Precipitation, MM = Missing Value Source: NWS Daily Summary

Daily Weather History Graph

Daily Weather History Graph

Search for Another Location

Airport:

Trip Planner

Search our weather history database for the weather conditions in past years. The results will help you decide how hot, cold, wet, or windy it might be!

Date:

Astronomy

Dec. 11, 2012 Rise Set
Actual Time 7:40 AM MST 4:47 PM MST
Civil Twilight 7:08 AM MST 5:19 PM MST
Nautical Twilight 6:33 AM MST 5:54 PM MST
Astronomical Twilight 5:59 AM MST 6:28 PM MST
Moon 5:38 AM MST (12/11) 3:30 PM MST (12/11)
Length of Visible Light 10h 10m
Length of Day
9h 06m
Waning Crescent, 4% of the Moon is Illuminated
Dec 11
Waning Crescent
Dec 13
New
Dec 19
First Quarter
Dec 28
Full
Jan 4
Last Quarter

Hourly Weather History & Observations

Time (MST) Temp. Windchill Dew Point Humidity Pressure Visibility Wind Dir Wind Speed Gust Speed Precip Events Conditions
12:53 AM 1.9 °F -5.6 °F -0.9 °F 88% 30.09 in 10.0 mi ENE 3.5 mph - N/A   Mostly Cloudy
1:53 AM 8.1 °F -0.5 °F 5.0 °F 87% 30.05 in 10.0 mi East 4.6 mph - N/A   Overcast
2:53 AM 6.1 °F -0.9 °F 3.0 °F 87% 30.07 in 10.0 mi ESE 3.5 mph - N/A   Overcast
3:53 AM 5.0 °F - 1.0 °F 84% 30.07 in 10.0 mi Calm Calm - N/A   Clear
4:53 AM 12.0 °F -2.7 °F 7.0 °F 80% 30.06 in 10.0 mi North 12.7 mph - N/A   Partly Cloudy
5:53 AM 10.0 °F - 6.1 °F 84% 30.05 in 10.0 mi Calm Calm - N/A   Clear
6:53 AM 18.0 °F 6.1 °F 10.9 °F 74% 30.02 in 10.0 mi NW 10.4 mph - N/A   Clear
7:53 AM 8.1 °F -0.5 °F 3.9 °F 83% 30.11 in 10.0 mi South 4.6 mph - N/A   Clear
8:53 AM 12.0 °F - 7.0 °F 80% 30.12 in 10.0 mi Calm Calm - N/A   Clear
9:53 AM 18.0 °F 11.1 °F 10.9 °F 74% 30.07 in 10.0 mi SSE 4.6 mph - N/A   Clear
10:53 AM 25.0 °F 17.1 °F 14.0 °F 63% 30.02 in 10.0 mi SE 6.9 mph - N/A   Overcast
11:53 AM 27.0 °F 20.5 °F 14.0 °F 58% 30.04 in 10.0 mi East 5.8 mph - N/A   Overcast
12:53 PM 28.0 °F 22.8 °F 14.0 °F 56% 30.01 in 10.0 mi ESE 4.6 mph - N/A   Overcast
1:53 PM 30.0 °F 25.2 °F 16.0 °F 56% 29.94 in 10.0 mi SE 4.6 mph - N/A   Clear
2:53 PM 30.0 °F 25.2 °F 16.0 °F 56% 29.94 in 10.0 mi East 4.6 mph - N/A   Overcast
3:53 PM 27.0 °F 21.6 °F 16.0 °F 63% 29.94 in 10.0 mi ESE 4.6 mph - N/A   Overcast
4:53 PM 25.0 °F 20.7 °F 17.1 °F 72% 29.91 in 10.0 mi West 3.5 mph - N/A   Mostly Cloudy
5:53 PM 21.0 °F 13.4 °F 14.0 °F 74% 29.93 in 10.0 mi WNW 5.8 mph - N/A   Partly Cloudy
6:53 PM 19.9 °F 14.9 °F 14.0 °F 78% 29.90 in 10.0 mi West 3.5 mph - N/A   Partly Cloudy
7:53 PM 18.0 °F - 14.0 °F 84% 29.95 in 10.0 mi Calm Calm - N/A   Partly Cloudy
8:53 PM 17.1 °F 7.6 °F 12.9 °F 84% 29.94 in 10.0 mi NE 6.9 mph - N/A   Scattered Clouds
9:53 PM 18.0 °F 11.1 °F 14.0 °F 84% 29.89 in 10.0 mi ENE 4.6 mph - N/A   Partly Cloudy
10:53 PM 10.9 °F 1.4 °F 7.0 °F 84% 29.87 in 10.0 mi ENE 5.8 mph - N/A   Scattered Clouds
11:53 PM 10.9 °F -1.8 °F 8.1 °F 88% 29.86 in 10.0 mi NE 9.2 mph - N/A   Clear